Nespelem, WA (99155)

1:05 PM PDT on March 27, 2017 (GMT -0700)
FDR Estates | | Change Station

Elev 1664 ft 47.93 °N, 118.95 °W | Updated 2 seconds ago

Mostly Cloudy
Mostly Cloudy
50.4 °F
Feels Like 50.4 °F
N
8.9
Wind Variable Wind from NW
Gusts 12.0 mph

Today
High -- | Low -- °F
--% Chance of Precip.
Yesterday
High -- | Low -- °F
Precip. -- in
Pressure 30.05 in
Visibility 10.0 miles
Clouds Overcast 2300 ft
Dew Point 40 °F
Humidity 67%
Rainfall 0.04 in
Snow Depth Not available.
6:43 AM 7:19 PM
Waning Crescent, 0% visible
METAR KOMK 271953Z AUTO 13005KT 10SM OVC023 09/03 A3002 RMK AO2 SLP174 T00940028
Pressure 30.05 in
Visibility 10.0 miles
Clouds Overcast 2300 ft
Dew Point 40 °F
Humidity 67%
Rainfall 0.04 in
Snow Depth Not available.
6:43 AM 7:19 PM
Waning Crescent, 0% visible
METAR KOMK 271953Z AUTO 13005KT 10SM OVC023 09/03 A3002 RMK AO2 SLP174 T00940028

Get Severe Weather Alerts

Thanks for signing up!

Be on the lookout for a verification email in your inbox.

You'll start receiving the daily forecast at 8 AM.

×

10-Day Weather Forecast

Almanac

Astronomy

Mar. 27, 2017 Rise Set
Actual Time
Civil Twilight
Nautical Twilight
Astronomical Twilight
Moon
Length of Visible Light
Length of Day
Tomorrow will be .
, % of the Moon is Illuminated

Today's Extremes

State Highs State Lows

Community

WunderPhotos

Upload Photos

1,962,540 photos uploaded!

WunderBlog® & News

Nearby

Air Quality

  Air Quality AQ Index Pollutant
Not available.

Snow Depth

Station Depth Elevation

Earthquake Activity

City Distance Mag. Time & Date
Minimum magnitude displayed is 2.5.

Earthquake Activity

City Distance Mag. Time & Date
Minimum magnitude displayed is 2.5.

Coastal Water Temperatures

Place Temperature

Stations

Nearby Weather Stations

Station Location Temp. Windchill Dew Point Humidity Wind Precip. Elev Updated Type
                   

Watches & Warnings

There are currently no watches in effect.